Theta_e
309 310 310 310 310 310 309 310 310 308 304 299 290 283 288 284 288 294 293 292 294 290 279 279 278 276 280 282 281 279 279 278 278 281 282 282 280 280 282 282 281 279 282 280 278 279 277 277 279 278 278 277 278 277 278 275 278 278 277 280 279 284 272 269 273 275 272 274 276 277 275 279 279 278 274 273 271 272 275 270 263 268 264 267 262 265 275
309 309 309 310 309 308 308 309 309 308 304 292 287 288 283 283 289 293 295 292 293 285 281 277 277 276 282 281 282 281 282 281 281 281 280 280 279 282 281 282 282 281 279 279 281 280 277 279 281 279 276 280 279 279 280 277 281 281 280 277 279 275 273 273 266 267 272 270 271 275 278 278 276 272 272 270 269 266 263 264 262 271 269 272 268 269 273
308 309 309 310 310 308 307 308 309 309 305 291 288 286 283 285 285 286 289 294 292 284 278 277 274 277 277 278 278 279 282 281 282 281 282 280 278 278 280 281 281 280 280 279 280 280 279 276 276 276 273 276 275 273 274 272 279 279 281 283 280 274 272 271 269 267 269 271 270 270 269 270 274 275 273 271 272 269 271 271 267 268 268 272 265 268 280
308 308 308 309 310 309 308 308 308 308 306 298 290 283 284 283 284 285 283 288 285 282 279 279 277 273 275 277 278 278 279 282 279 280 282 280 280 279 281 280 280 280 282 280 280 280 280 278 274 273 276 273 277 276 274 274 277 280 280 279 276 270 271 274 273 271 273 276 278 276 278 274 272 270 271 271 270 269 269 268 266 272 266 270 275 277 280
309 308 308 308 310 309 310 309 308 308 305 300 286 281 284 282 281 279 278 283 284 279 280 278 277 277 278 278 278 276 277 279 279 281 283 281 281 282 281 281 282 280 281 278 280 279 280 279 275 273 272 271 273 276 278 276 279 281 280 276 268 266 271 274 275 274 278 280 279 277 278 276 278 274 275 270 271 271 274 274 273 272 268 273 278 278 277
309 309 308 307 308 308 309 308 309 307 307 299 291 284 282 282 280 281 283 284 282 280 282 279 279 279 279 277 279 276 277 279 277 280 282 281 279 283 281 281 282 280 282 280 276 277 278 277 275 273 270 269 274 273 277 277 279 279 276 273 274 270 269 267 270 272 276 277 277 278 277 277 277 277 276 273 271 270 274 275 277 274 274 274 280 276 274
309 309 308 308 308 308 308 309 307 306 306 298 290 290 282 281 280 282 283 282 278 280 282 280 279 280 278 277 279 276 277 278 281 280 282 280 280 282 277 281 280 279 279 281 277 277 275 274 272 272 273 271 271 273 274 278 277 276 274 274 266 271 269 265 267 272 275 277 279 278 276 274 274 275 276 277 273 273 276 277 277 277 277 280 280 280 279
309 309 308 308 308 308 308 306 307 305 304 296 294 284 284 285 285 283 280 278 275 275 276 279 279 281 282 278 281 279 279 280 280 281 281 278 280 282 282 281 278 278 279 280 279 277 279 278 276 274 274 273 270 268 274 275 276 274 274 271 272 273 270 275 270 269 274 274 273 271 274 272 272 277 277 276 276 275 275 275 275 274 276 278 279 278 278
309 308 309 308 308 308 307 307 306 303 304 293 286 283 282 283 282 282 280 276 279 277 273 278 278 275 279 279 281 282 279 281 280 281 282 282 281 281 283 281 281 278 279 280 279 280 279 278 279 278 276 277 276 276 277 276 272 273 272 270 270 271 269 263 262 269 273 271 272 275 273 273 272 275 277 275 273 269 272 271 275 274 274 275 274 272 276
309 308 308 308 308 308 307 306 305 304 299 287 281 287 280 279 281 279 279 280 280 278 274 275 276 276 280 283 282 282 283 280 279 281 279 277 282 281 281 280 283 279 280 278 281 280 279 279 279 279 276 277 279 278 278 276 273 268 270 266 271 267 266 268 263 269 268 271 271 275 274 272 270 270 274 275 274 273 273 275 275 278 278 274 270 277 284
308 308 308 308 308 308 307 305 305 302 294 289 283 283 280 283 286 281 279 279 276 270 275 277 279 282 281 281 282 280 280 279 281 280 280 282 281 277 280 281 283 277 278 282 280 280 279 279 278 278 278 279 279 276 277 276 275 274 273 268 265 264 268 268 267 268 265 270 273 274 272 269 268 278 276 278 280 278 276 277 278 278 280 279 280 282 283
308 308 308 308 308 308 308 306 304 302 295 283 285 283 281 279 279 277 278 281 280 269 275 280 281 280 283 281 280 281 282 281 283 281 281 279 281 278 280 279 280 279 279 279 280 279 279 279 279 277 278 277 277 277 277 279 276 276 275 274 266 267 267 269 262 267 270 271 272 272 267 267 273 278 279 279 279 279 279 280 280 280 279 281 281 283 284
308 308 307 308 307 307 307 307 304 302 299 291 291 288 282 280 282 278 279 279 279 275 277 280 270 274 275 277 279 278 278 278 277 279 279 281 280 280 280 280 280 279 277 280 279 280 279 276 277 277 278 275 278 277 277 275 275 276 274 271 270 264 268 264 268 262 264 268 262 264 271 277 281 282 279 279 278 278 279 279 281 282 280 281 280 282 283
307 307 307 307 307 307 307 308 307 303 300 296 291 285 282 281 285 283 280 277 278 270 273 275 273 275 275 276 277 278 279 278 276 278 278 281 281 281 281 282 281 281 281 279 277 278 277 273 267 269 274 272 273 272 276 275 275 275 275 275 274 272 263 267 270 266 266 263 263 273 277 278 278 277 282 281 282 279 279 273 282 286 280 280 280 282 283
307 306 306 306 306 306 307 307 307 305 301 297 291 288 288 285 282 280 277 279 279 275 272 281 278 279 278 278 278 278 272 271 278 279 279 279 279 279 280 281 282 282 281 279 275 274 273 273 269 268 270 270 270 270 278 275 276 275 275 274 273 275 271 271 270 269 262 269 267 268 268 267 275 276 281 282 281 281 280 279 281 286 284 283 282 282 284
307 306 306 306 306 306 306 307 307 307 305 298 293 290 290 286 281 280 280 277 272 277 278 281 281 278 281 280 277 280 279 273 274 275 273 272 274 277 280 280 280 280 280 274 272 268 269 275 269 266 270 270 272 273 270 275 275 275 274 274 274 272 272 269 269 268 264 267 265 261 262 273 281 281 279 280 280 281 279 276 276 281 279 279 280 281 282
307 306 306 305 305 306 306 306 307 307 305 302 288 291 293 290 287 287 285 279 280 279 278 280 279 280 276 278 277 278 277 279 279 276 274 277 279 278 278 279 280 280 281 277 272 275 273 264 263 265 267 271 273 272 276 273 273 271 275 274 271 270 263 267 270 266 264 259 264 267 265 271 280 279 281 282 278 280 279 272 274 280 278 279 280 282 283
307 306 305 305 305 305 306 306 306 306 306 303 296 293 289 292 288 284 281 280 278 279 279 279 284 280 280 281 282 281 279 281 279 278 279 278 279 280 279 279 279 280 281 276 271 268 265 267 273 272 270 272 276 276 272 272 270 269 271 273 271 269 270 268 271 262 266 272 265 262 270 277 278 279 280 280 279 282 270 271 281 282 283 284 282 283 284
307 306 305 305 305 305 305 305 306 305 306 303 289 290 290 290 292 285 282 279 281 283 280 280 281 283 283 284 284 280 281 284 282 276 273 275 280 280 279 281 281 276 279 270 271 270 272 268 270 266 270 270 275 272 273 272 272 271 270 274 270 265 262 264 261 263 266 267 267 271 270 278 282 278 280 280 280 272 275 283 282 282 285 286 285 284 284
306 305 305 305 305 305 305 305 305 305 306 305 297 293 290 287 290 290 287 280 275 280 280 282 284 287 285 286 283 281 281 278 278 280 275 276 278 280 277 274 281 278 276 275 274 271 271 272 270 271 269 265 270 275 271 274 274 276 273 270 273 272 269 266 264 265 263 261 260 267 268 275 281 282 283 284 277 282 283 283 286 287 285 284 285 285 284
305 305 305 305 305 305 305 305 305 305 305 305 297 288 294 290 291 293 287 280 278 280 281 282 282 284 283 283 285 286 284 284 281 279 277 279 281 279 274 275 277 275 274 271 276 273 268 270 265 269 273 273 275 277 271 266 272 278 279 275 273 273 273 268 266 271 267 266 268 272 281 279 282 282 282 279 284 287 285 283 284 287 286 284 284 285 285
305 305 305 305 305 305 304 305 305 305 305 305 302 295 294 294 290 294 292 285 280 280 280 284 283 283 284 285 285 284 286 285 284 285 282 278 279 281 278 279 280 276 276 272 272 272 274 271 267 268 272 271 276 275 270 272 275 272 274 274 275 278 276 274 279 275 276 276 279 285 282 282 283 283 285 287 288 285 284 282 284 283 285 285 284 285 286
305 305 305 305 305 305 304 304 305 305 304 304 299 295 293 293 295 293 287 282 281 282 281 281 284 284 285 287 286 288 287 286 287 284 285 284 277 279 281 279 279 280 281 281 279 277 275 271 277 274 270 269 275 271 269 274 270 268 276 280 279 278 279 279 280 278 280 282 284 286 286 288 286 283 285 287 287 287 284 282 283 285 285 285 284 285 285
304 304 304 304 305 305 304 304 304 304 304 302 299 295 292 290 295 292 288 284 281 284 284 283 280 284 285 288 286 286 286 287 286 286 283 285 282 276 278 282 283 283 280 282 279 281 274 273 276 270 275 274 269 273 272 272 276 272 271 277 274 278 279 281 277 278 280 279 285 284 286 288 288 289 288 286 285 285 283 282 283 285 285 285 285 285 285
303 303 304 304 304 304 304 303 303 303 303 302 297 295 293 294 296 290 288 287 286 278 283 278 276 286 285 284 287 287 288 287 288 287 286 285 284 283 280 285 283 285 282 284 280 278 274 278 275 273 274 278 276 277 278 271 278 276 274 277 272 278 280 279 280 279 279 281 285 287 288 288 290 290 286 285 287 285 283 284 285 285 285 284 285 284 285
303 303 303 304 304 304 304 303 303 302 302 301 300 295 295 293 296 290 287 284 279 273 281 282 283 283 284 286 286 287 287 287 286 286 286 284 283 284 285 284 284 280 280 279 278 278 274 276 274 272 272 280 279 275 273 279 280 277 277 280 279 280 281 280 279 279 281 284 286 288 289 290 289 282 284 286 287 284 285 285 285 285 285 285 285 284 284
303 303 303 303 304 303 303 303 302 302 301 300 298 297 298 297 297 295 292 288 285 283 281 280 280 282 285 287 287 288 290 287 284 283 284 285 285 285 283 284 283 281 281 280 275 272 271 271 271 277 273 278 271 273 273 281 280 279 277 280 280 281 280 280 279 279 280 282 286 287 283 284 289 285 284 285 284 283 284 285 285 286 285 285 284 285 285
303 302 303 303 303 303 303 302 302 302 299 299 299 298 299 297 297 298 296 292 291 282 282 282 282 289 288 287 288 288 288 288 285 283 281 282 283 284 284 283 282 280 276 277 279 277 275 274 279 272 267 268 273 280 270 270 272 275 276 278 281 280 281 279 278 278 281 286 288 288 288 287 287 286 286 285 283 282 283 284 284 285 285 284 283 283 284
302 302 302 303 303 303 302 302 302 302 301 296 292 293 294 297 300 299 298 295 287 281 277 280 282 281 284 289 285 283 285 285 284 283 283 283 282 283 283 282 281 277 273 272 271 269 270 276 273 274 279 279 277 277 273 277 273 278 282 279 279 282 283 284 285 285 287 289 288 288 284 283 285 285 284 284 284 283 284 284 285 284 284 284 283 283 283
302 302 302 302 302 302 302 303 302 301 299 292 287 283 285 288 296 298 299 297 290 284 283 280 280 282 282 283 286 283 284 285 283 283 281 281 282 281 281 281 279 281 278 278 275 278 275 273 273 276 277 280 279 273 274 269 271 280 280 280 281 281 282 287 287 285 286 289 288 284 281 283 285 283 284 283 283 283 284 284 285 285 285 284 283 284 284
302 302 302 302 302 302 302 303 302 301 297 289 288 285 282 282 286 298 298 297 293 285 277 277 281 280 280 285 283 285 284 284 283 281 281 280 281 281 279 279 278 279 278 276 274 276 274 271 270 275 278 281 281 276 273 271 275 277 283 282 283 283 284 286 285 286 287 287 284 282 282 282 283 282 284 285 286 285 284 284 285 284 284 283 283 283 283
302 302 302 302 302 302 302 303 302 301 298 294 288 284 283 287 294 298 298 297 294 285 281 279 278 275 274 279 282 285 285 284 281 280 280 282 282 280 279 280 279 280 285 273 275 274 274 278 275 273 276 284 283 272 268 271 276 280 286 283 283 285 286 284 285 286 285 283 280 282 282 284 284 283 284 285 285 284 284 284 285 285 284 283 283 283 283
302 302 302 302 302 302 302 302 302 301 298 299 301 301 300 301 300 299 298 297 287 277 275 276 278 276 275 281 282 283 284 283 279 282 284 281 282 280 279 279 280 281 288 282 275 275 276 276 275 275 279 281 278 273 270 276 281 286 287 287 287 286 283 284 285 284 283 282 281 282 281 282 284 286 285 284 283 284 285 284 285 284 283 283 283 284 285
303 303 302 301 301 302 302 302 302 301 298 294 292 293 296 299 299 299 299 291 284 279 276 277 275 275 277 277 280 283 285 284 279 278 281 283 280 282 278 279 279 278 281 281 279 281 277 278 275 274 277 277 273 273 274 280 284 285 285 285 285 282 283 283 283 282 283 283 281 282 284 285 284 282 282 283 284 285 284 284 283 283 284 284 284 284 285
303 303 302 301 300 301 301 298 292 289 286 285 288 293 297 299 300 300 298 289 281 279 278 278 274 270 274 275 275 278 284 284 280 278 279 279 281 281 281 277 275 278 279 283 280 278 271 276 278 275 277 270 273 275 278 282 283 283 283 284 284 282 282 282 282 282 282 282 280 281 282 280 280 282 284 284 284 284 283 283 283 282 283 284 284 284 284
303 301 299 300 299 298 294 291 291 289 285 283 289 295 299 300 299 299 296 293 287 282 281 282 275 273 273 275 276 277 283 279 277 275 277 278 278 280 279 275 276 280 279 278 276 274 275 280 278 275 268 271 276 278 281 282 282 284 285 285 285 283 284 284 284 284 283 282 281 281 282 282 281 283 284 284 284 284 283 283 284 284 283 283 284 285 285
301 298 297 294 290 285 279 282 289 290 288 292 295 298 299 299 297 292 290 286 285 288 285 282 280 278 278 279 279 278 283 281 280 274 269 277 279 272 274 276 278 280 275 274 271 273 281 281 277 274 270 274 280 281 282 284 283 285 286 286 284 283 282 281 281 281 280 282 283 284 284 283 283 284 284 284 285 285 284 283 284 283 283 283 284 284 284
299 294 288 285 282 276 275 279 285 290 296 296 296 289 287 288 284 284 285 285 286 286 285 283 282 281 280 279 279 282 283 277 275 276 273 269 276 275 271 277 281 279 275 271 276 282 277 277 275 273 279 284 284 281 283 284 286 286 284 284 283 282 281 281 280 280 280 281 282 284 284 284 284 285 284 284 284 284 284 285 284 284 284 284 284 284 284
294 288 285 280 278 274 276 284 289 295 293 290 287 283 282 276 277 279 280 278 281 285 283 282 282 283 281 279 283 284 284 280 276 268 275 275 277 278 275 273 276 275 269 269 272 280 276 269 266 264 276 279 279 281 284 286 282 281 282 281 281 281 280 280 280 281 282 282 284 284 284 283 283 284 285 284 285 285 285 284 284 284 284 284 284 285 284
289 288 284 281 277 282 286 291 296 291 288 284 276 277 278 277 280 278 272 271 272 273 275 277 279 282 284 282 278 278 281 281 278 277 271 276 279 275 273 273 272 274 270 267 276 271 273 270 267 266 275 281 280 282 281 279 279 280 279 280 280 280 279 280 281 282 281 283 283 283 283 283 283 283 283 284 284 283 284 284 284 284 284 284 284 284 283
288 286 286 285 286 288 293 295 290 279 277 279 279 278 275 277 278 278 274 267 267 272 272 277 275 274 276 277 278 278 283 280 276 272 271 276 276 275 273 274 275 273 271 269 274 270 272 269 266 267 279 279 276 278 278 278 278 279 280 280 280 281 281 281 281 281 281 283 283 284 284 283 283 283 284 283 283 283 283 284 284 284 284 284 283 284 285
291 290 289 293 294 293 288 286 280 282 280 278 276 276 278 278 276 273 276 275 275 270 276 277 275 276 276 278 279 276 279 276 274 274 275 272 276 274 270 269 269 270 267 270 268 268 267 268 266 272 278 277 277 278 278 278 280 281 282 283 282 282 282 282 283 284 283 282 283 283 284 284 284 284 284 284 284 284 284 284 283 283 284 285 285 285 285
297 297 296 286 283 280 277 279 278 278 277 276 275 274 274 272 274 272 272 268 269 276 279 275 276 281 279 278 278 277 279 280 281 278 275 272 276 275 271 269 266 267 270 268 272 270 267 269 264 278 280 279 278 278 278 279 279 280 281 282 282 283 282 282 282 283 283 282 282 283 284 284 284 284 284 284 283 282 282 283 283 284 285 285 285 286 286
289 284 282 278 277 277 281 280 283 281 280 277 274 275 273 270 273 270 268 273 272 272 274 277 278 280 278 276 277 276 275 281 280 272 275 272 272 268 269 268 269 272 270 271 268 269 276 270 278 281 279 279 280 278 281 282 282 282 283 285 284 282 282 282 283 283 284 285 285 285 285 285 285 286 286 285 284 283 283 284 285 286 286 286 285 286 286
281 279 277 275 276 278 277 276 278 275 275 274 277 272 270 272 271 264 275 274 276 278 276 273 276 276 277 278 276 275 279 275 276 274 272 273 273 269 267 269 267 268 271 272 266 267 265 274 276 274 277 279 281 282 282 282 282 282 282 282 282 283 284 284 284 284 284 285 285 285 285 285 285 285 285 285 286 286 285 284 285 285 285 285 285 285 286
282 280 276 274 275 275 271 270 273 272 273 270 271 270 266 266 264 267 272 271 274 274 277 277 274 274 274 274 275 274 272 276 273 274 270 272 271 271 273 267 270 269 264 266 267 271 275 278 277 279 278 280 281 282 282 282 283 282 281 282 284 284 284 284 284 284 284 285 285 285 285 285 285 285 284 285 285 285 286 286 286 286 285 285 285 285 286
280 280 277 275 272 276 274 271 272 273 274 272 271 270 273 277 274 277 274 271 276 276 274 272 274 275 275 274 274 273 271 271 273 273 270 272 271 271 273 271 268 269 266 262 268 273 273 273 276 278 279 281 281 282 282 283 284 284 284 284 284 284 284 284 284 284 284 284 284 284 284 284 284 285 285 285 285 286 286 286 286 286 285 285 285 286 286
278 278 276 274 273 272 272 272 271 274 273 274 273 270 273 272 274 278 273 272 276 277 275 272 277 273 273 274 274 275 269 269 273 275 275 270 272 273 271 271 274 270 269 267 273 276 276 278 277 280 281 281 280 281 282 283 283 284 284 284 284 284 284 283 283 283 284 283 283 284 284 284 284 284 284 284 284 285 286 286 286 286 286 286 285 285 285
281 277 273 272 273 269 271 273 275 275 273 268 267 268 270 274 275 278 277 271 277 275 277 276 275 274 274 271 271 270 272 272 270 272 270 268 271 271 271 266 264 267 273 274 277 278 279 279 280 280 280 281 282 283 283 284 284 284 284 283 283 283 283 283 283 283 284 284 284 284 284 284 284 284 284 285 284 285 286 286 286 286 285 285 284 284 284
278 277 281 278 274 273 270 272 273 274 265 266 268 270 268 271 269 276 274 275 271 273 273 274 276 275 271 271 268 270 269 269 271 268 268 272 269 265 269 271 273 274 271 271 275 279 280 281 281 281 282 282 283 283 283 284 284 284 284 284 284 284 283 283 283 283 284 284 284 284 284 284 284 284 284 284 285 285 285 285 285 285 285 285 285 284 284
286 281 278 277 276 272 270 271 269 270 271 269 265 271 272 274 273 277 271 272 274 275 273 271 267 271 267 266 267 265 271 272 267 271 269 268 267 266 271 272 274 277 279 281 281 281 281 282 282 282 282 283 283 283 283 283 283 283 283 283 283 284 284 284 284 284 284 284 284 284 284 284 284 285 285 285 285 284 284 285 285 285 285 285 285 285 284
279 276 276 279 278 278 278 278 273 277 278 279 277 276 276 275 274 277 274 277 276 275 275 272 271 271 272 272 270 270 269 269 270 268 269 271 265 266 272 276 277 279 280 280 280 281 282 283 283 283 283 283 283 283 283 282 282 283 282 283 283 283 283 283 284 284 284 284 284 284 284 284 285 285 285 284 284 283 283 283 285 285 285 286 286 285 285
Wind_Speed
25 24 25 23 23 22 24 20 13 10 4 0 1 1 5 5 1 1 5 1 1 10 7 1 6 4 0 1 1 1 1 2 1 1 1 0 1 1 0 1 0 1 0 0 0 2 1 4 0 1 1 2 1 2 4 4 3 2 1 1 1 4 0 2 7 7 4 1 2 1 1 0 1 0 3 3 4 6 8 5 5 4 0 1 2 3 14
26 27 23 20 21 23 27 22 17 10 6 3 5 9 3 2 1 3 1 4 5 7 3 2 2 1 1 1 0 0 0 0 2 0 1 0 1 0 0 1 0 0 0 1 0 1 1 1 0 1 0 2 3 3 3 5 0 0 1 2 1 1 3 2 5 6 5 5 2 1 1 1 2 2 3 2 3 6 2 5 0 1 8 9 8 10 10
27 27 27 19 18 30 28 25 20 13 5 2 1 2 3 3 1 1 7 11 9 6 2 6 5 0 1 1 3 3 1 2 1 0 1 0 0 0 1 0 0 1 0 1 1 0 1 2 1 0 1 2 2 4 2 4 1 2 3 1 2 1 3 2 2 4 9 11 10 7 5 4 3 1 0 1 9 8 2 3 1 4 4 7 4 9 16
28 28 29 22 19 21 24 26 23 17 7 3 10 3 3 3 2 7 7 9 8 7 1 6 7 5 1 3 1 0 1 1 2 2 1 1 0 2 1 1 1 1 1 1 1 0 2 0 2 2 1 1 1 1 1 2 2 1 3 2 1 1 0 3 7 7 9 11 9 2 2 1 2 5 3 6 1 2 2 5 5 10 3 7 14 12 16
29 29 27 26 20 22 20 16 22 20 10 7 10 5 5 2 6 3 5 7 10 4 6 5 4 2 1 1 0 4 1 2 1 1 0 1 0 0 0 0 0 1 1 1 1 0 1 1 0 4 5 2 2 2 1 0 1 2 1 1 2 2 1 7 8 10 14 12 11 2 2 6 9 8 10 5 6 10 8 9 10 6 5 11 12 11 10
28 28 27 29 28 25 21 22 23 24 17 2 6 7 6 6 1 1 2 4 3 7 7 7 5 3 2 1 1 0 2 2 1 1 0 0 0 0 0 1 0 2 0 1 0 1 1 0 2 1 2 2 1 1 0 0 2 2 0 1 1 1 3 7 6 12 9 12 14 8 7 6 8 9 10 9 6 7 13 15 12 8 8 14 14 5 4
28 28 28 29 25 26 26 25 24 27 21 9 7 9 3 6 2 1 1 2 1 1 1 1 4 7 3 1 2 3 2 4 0 0 2 1 1 1 2 2 2 2 1 0 1 0 4 4 2 3 2 3 2 3 1 1 4 2 1 1 0 1 5 3 1 8 8 11 16 6 6 5 5 10 15 8 9 14 16 17 9 12 14 17 17 17 19
27 26 28 27 25 25 22 26 24 28 18 6 15 6 3 1 1 1 5 7 4 0 1 1 4 7 3 2 2 1 0 2 4 1 1 2 1 0 0 5 3 1 0 0 1 2 1 2 4 2 3 4 2 2 3 0 1 1 0 0 1 2 6 4 1 3 8 5 4 1 1 1 6 13 11 7 10 11 13 7 7 5 12 20 21 17 21
21 26 27 28 25 23 25 23 25 26 14 10 8 2 4 0 0 3 5 5 3 1 3 2 3 3 6 6 1 1 0 0 1 3 0 2 1 1 1 0 1 1 0 0 6 4 3 5 8 3 3 3 4 2 2 2 1 1 0 1 1 1 5 2 3 5 8 2 6 9 3 4 7 14 19 7 5 5 6 7 9 7 13 8 1 5 12
20 19 25 27 26 24 24 25 26 22 15 10 3 4 1 1 0 2 4 5 2 3 1 1 4 5 2 1 1 0 1 2 0 0 1 1 0 3 2 1 0 3 2 6 6 3 4 5 5 4 4 1 0 1 0 2 2 3 3 0 2 1 1 3 3 5 8 3 4 11 9 5 6 9 7 5 6 5 2 4 4 13 4 1 4 11 10
22 20 22 26 25 24 24 25 24 24 12 9 6 3 3 3 2 3 5 6 3 2 1 4 7 1 1 1 1 0 0 0 1 1 2 1 0 1 1 3 0 4 3 1 2 1 3 3 3 1 1 0 0 1 3 7 4 3 7 1 0 1 1 0 0 1 8 9 12 7 7 9 7 4 5 1 10 7 7 8 12 12 11 9 6 9 11
23 22 21 20 21 23 23 23 22 24 14 3 6 5 2 2 2 3 4 7 1 1 4 2 1 0 0 0 1 1 0 0 0 0 2 1 0 1 3 1 1 4 1 3 2 3 4 2 2 0 2 3 3 3 4 3 1 1 1 2 3 1 1 1 1 1 6 9 9 9 7 6 5 6 6 6 8 5 11 13 10 8 9 12 16 19 18
21 21 21 21 21 22 22 22 20 19 15 6 8 8 1 2 2 3 5 6 1 2 4 0 1 1 1 1 1 2 3 2 0 2 1 1 2 0 1 1 2 1 2 3 4 1 3 5 5 3 3 2 1 6 7 6 1 2 3 2 5 3 2 2 1 2 3 2 3 5 9 10 16 16 3 2 3 2 1 7 10 12 9 12 13 18 18
22 21 21 21 20 21 21 20 20 16 16 10 13 4 1 1 2 4 3 2 1 1 1 0 2 1 0 2 1 2 0 1 1 1 1 1 2 2 1 1 1 1 2 2 1 1 4 5 4 7 4 4 0 1 0 2 2 2 3 1 1 7 3 2 3 1 2 2 1 11 10 14 13 3 2 1 2 0 2 3 13 13 3 8 8 13 13
21 21 21 21 21 21 20 19 19 16 11 11 9 6 7 6 2 4 3 4 2 0 0 4 4 1 0 0 1 4 2 2 5 1 0 1 1 3 2 1 1 3 4 1 2 4 1 0 3 5 6 6 4 3 0 0 1 1 1 0 1 2 4 3 2 3 4 1 6 7 7 6 12 4 2 0 2 2 2 1 10 10 8 6 8 8 11
20 20 20 20 20 19 20 20 19 18 13 4 8 7 8 3 0 3 4 3 4 4 2 4 1 2 1 0 2 2 2 3 2 2 2 2 3 4 1 1 1 1 2 2 2 2 1 1 3 2 3 1 2 1 3 1 0 1 3 2 3 4 4 2 3 2 3 0 2 3 2 10 10 10 4 2 2 2 2 2 9 6 3 3 2 7 9
19 19 19 19 19 19 19 18 19 19 17 8 4 5 9 6 4 2 2 4 6 1 2 1 4 4 5 1 1 1 1 1 1 3 5 5 2 2 6 1 2 1 1 1 4 1 2 2 1 1 5 2 0 2 4 1 2 2 1 4 6 2 1 1 1 3 3 2 1 6 5 8 9 3 0 2 3 2 3 8 8 5 4 3 3 9 11
18 19 19 19 19 20 20 20 19 18 15 10 7 7 4 5 2 0 5 4 2 0 2 2 3 4 3 1 1 1 1 1 2 0 1 3 1 2 1 1 1 2 2 2 1 2 2 1 2 2 4 2 0 1 4 1 2 4 1 2 1 0 1 2 8 2 2 5 5 4 9 10 8 9 5 1 1 0 2 9 10 7 12 11 7 12 12
17 17 18 18 19 19 20 19 19 18 17 9 4 4 5 6 8 2 7 4 5 3 3 2 1 1 0 1 1 2 1 0 1 1 4 5 1 1 1 1 1 1 2 1 1 1 0 4 1 0 1 4 1 2 1 3 4 1 3 2 1 1 2 2 4 2 5 6 5 9 7 11 7 3 1 1 2 5 11 6 5 8 14 15 12 12 11
16 16 17 18 19 19 20 20 19 18 17 15 6 6 2 2 5 5 3 2 1 4 2 1 0 2 1 2 3 3 2 3 2 1 2 2 3 0 2 2 2 2 1 2 1 2 1 4 1 1 2 2 4 2 2 6 1 4 2 3 2 6 4 5 4 3 2 3 1 7 7 3 2 6 1 0 3 10 4 7 14 13 10 10 14 12 10
16 16 17 18 19 19 19 20 19 17 16 14 6 5 5 3 4 6 3 2 3 4 2 1 0 1 1 3 2 4 3 1 2 0 3 2 2 1 2 1 3 1 2 1 1 3 2 3 1 1 2 2 4 2 4 2 9 6 5 5 5 3 1 2 4 7 2 3 2 5 7 1 1 2 9 3 9 7 7 6 13 13 11 8 11 14 11
18 18 18 18 18 19 19 19 18 17 15 14 9 5 7 6 2 4 2 2 4 3 2 0 0 1 1 1 0 1 1 1 2 0 3 1 2 2 2 1 1 2 2 3 1 2 1 1 0 2 4 4 1 5 2 5 9 5 2 2 8 6 4 4 7 3 5 8 9 10 4 4 4 4 5 10 13 6 5 5 8 10 12 10 10 14 16
18 17 18 17 17 17 17 17 16 16 14 13 9 8 4 7 8 5 1 5 3 2 2 2 1 1 1 1 2 1 2 2 1 1 0 1 2 1 2 2 3 1 1 0 2 2 3 2 4 1 3 2 4 5 1 7 5 3 6 5 3 2 2 1 1 7 5 9 15 12 11 13 8 4 7 10 10 9 3 5 8 9 9 8 9 13 15
17 17 16 16 15 15 15 15 15 14 13 11 7 5 4 3 6 7 5 5 4 3 2 2 2 3 3 3 1 2 1 1 2 0 2 0 1 4 1 1 0 0 0 0 2 0 2 2 3 2 3 6 1 4 6 7 8 3 3 7 1 2 0 1 3 3 7 12 8 7 11 13 16 13 9 6 5 5 5 6 6 7 9 10 9 8 12
16 15 15 14 14 14 14 14 13 13 13 10 6 4 3 5 7 6 4 3 6 3 2 3 1 0 1 0 0 1 0 0 2 1 3 1 2 2 2 1 2 0 2 0 1 2 2 1 3 0 4 6 4 9 2 2 10 4 5 4 3 5 2 2 5 6 6 12 14 16 17 18 16 11 5 7 8 5 5 4 7 8 9 6 7 7 11
15 14 14 13 13 13 13 13 12 11 11 13 11 7 7 5 7 2 5 4 2 2 2 1 1 1 1 1 1 0 2 1 1 2 0 0 0 0 1 1 1 3 2 2 2 1 2 1 1 2 2 8 3 4 5 9 7 1 4 12 3 4 1 8 1 3 9 11 12 11 15 22 15 2 2 7 11 8 10 8 9 8 10 12 12 5 7
14 14 13 13 13 13 13 12 11 10 11 10 8 8 7 5 6 9 5 1 1 2 5 0 5 5 0 2 1 2 1 1 2 1 1 1 0 1 2 1 1 1 1 0 1 2 1 1 2 6 5 7 1 4 1 9 4 7 7 3 1 3 8 3 1 5 8 9 12 12 13 16 21 3 5 7 7 6 9 11 12 14 13 14 14 17 12
14 14 13 13 13 14 13 13 12 8 6 8 9 8 7 7 6 4 3 3 5 1 2 3 3 6 1 0 0 1 1 2 1 1 0 1 1 2 3 2 3 1 1 2 2 1 2 2 7 3 1 4 2 7 2 2 2 4 4 8 6 5 7 4 3 3 9 14 15 12 13 16 14 13 14 13 5 4 8 11 11 12 12 10 10 15 18
13 13 13 12 13 14 14 13 13 9 1 2 3 5 5 5 4 6 6 3 2 3 2 2 3 3 2 2 2 2 3 4 4 2 1 0 0 1 2 3 4 3 2 2 1 2 3 5 2 3 2 4 2 7 3 5 3 10 10 5 4 7 5 6 6 7 14 14 13 11 7 9 13 13 12 10 7 2 7 9 10 10 11 11 9 10 11
12 12 12 12 13 14 15 15 14 11 1 1 3 4 4 0 3 7 7 5 3 1 1 2 2 2 2 2 4 2 2 2 4 2 2 0 0 1 3 3 1 1 1 3 3 3 4 1 2 2 3 0 2 2 1 1 3 11 5 5 9 5 4 6 3 5 12 15 12 6 5 11 11 7 8 7 6 4 6 10 11 11 11 9 10 13 12
13 12 12 12 13 14 15 15 14 11 4 2 3 5 4 4 2 3 9 5 2 1 2 2 2 3 2 0 1 5 7 6 4 4 2 1 2 1 2 0 0 3 1 1 0 3 1 2 1 2 1 3 2 1 4 1 7 6 8 7 9 8 8 8 5 7 11 12 8 7 6 9 7 4 5 6 9 8 6 7 10 10 11 9 11 10 11
12 12 12 13 13 14 14 13 11 9 6 7 5 2 2 2 4 8 8 6 2 1 1 2 3 4 1 4 1 1 3 3 1 2 1 2 1 0 1 1 3 1 3 3 2 1 3 4 2 2 1 3 4 2 1 3 8 12 17 7 7 9 8 9 9 11 7 5 3 6 6 8 6 5 7 8 9 10 10 12 12 11 10 9 10 11 12
13 12 12 12 11 11 11 9 11 9 6 8 13 12 8 6 11 10 4 5 2 1 1 3 1 1 0 3 3 1 1 2 3 6 5 0 0 1 2 0 1 1 4 0 2 2 3 2 2 1 5 0 2 2 3 8 12 18 16 12 12 9 6 8 9 8 8 6 3 2 4 5 8 9 9 10 9 10 11 11 12 11 11 11 12 12 12
11 12 12 10 9 7 6 7 6 6 5 3 2 4 3 8 9 9 5 3 3 0 2 2 0 1 4 4 2 1 2 2 4 2 4 1 2 0 2 3 1 0 3 4 3 1 3 1 2 3 2 3 0 0 4 11 15 14 14 12 10 5 5 8 8 7 7 6 4 7 8 9 7 8 9 10 11 11 9 8 8 12 15 13 11 11 12
12 10 9 8 5 4 6 4 3 5 2 0 1 3 4 11 11 7 4 0 1 2 3 2 2 1 4 5 1 4 0 1 3 1 1 4 1 0 2 1 3 2 4 1 1 1 1 4 4 1 6 0 0 5 8 11 14 8 8 12 8 1 5 5 6 5 6 6 4 6 7 5 5 8 10 10 11 11 11 11 9 8 13 16 16 14 11
12 10 5 3 4 3 2 3 6 4 5 2 3 4 10 9 7 4 2 0 2 3 2 0 2 1 2 3 4 3 0 2 1 2 3 1 4 2 2 2 3 4 0 0 4 2 2 3 2 5 0 1 8 9 11 7 9 11 12 13 11 4 6 7 9 9 9 8 7 8 8 6 5 9 10 11 10 10 9 11 13 11 12 14 16 16 14
12 7 3 5 2 2 3 1 2 1 0 4 6 8 8 5 3 3 5 3 3 2 4 2 3 1 2 2 2 4 4 6 2 2 2 2 3 2 2 1 4 3 2 2 1 3 7 0 1 4 3 6 12 6 7 8 8 12 15 10 7 7 6 7 6 5 7 10 11 10 9 9 10 9 10 13 15 14 13 13 13 13 16 19 18 16 16
8 10 6 4 4 3 2 2 1 3 7 9 5 1 1 3 1 3 3 4 3 3 3 2 1 1 1 1 2 2 2 4 3 2 4 1 2 3 0 1 5 2 5 2 6 5 1 0 3 4 9 11 10 5 8 9 13 10 7 8 8 6 5 5 2 1 4 8 9 10 11 12 14 14 14 15 16 17 16 14 13 12 12 13 14 15 15
8 4 6 4 3 0 1 4 2 8 2 0 1 0 1 1 1 1 1 2 2 2 2 1 1 0 1 1 6 3 1 2 5 2 1 2 2 7 1 1 5 2 3 3 6 2 2 3 2 2 10 7 1 5 8 11 6 6 7 6 4 5 3 4 2 4 6 7 9 10 9 13 16 18 16 16 15 14 14 13 13 13 14 14 15 14 15
5 7 3 3 1 2 5 4 6 4 2 0 2 1 0 2 2 1 1 2 2 1 1 3 1 1 3 3 1 5 1 3 5 7 2 6 1 3 3 0 3 1 4 2 8 2 1 4 2 2 10 12 9 8 5 3 5 7 3 4 4 4 3 4 5 5 5 9 9 10 10 12 13 14 15 16 16 18 18 16 15 13 13 14 16 15 15
3 1 2 1 4 3 3 5 4 4 2 1 1 1 1 1 2 0 1 2 1 2 1 0 2 2 1 1 0 4 5 1 1 1 2 3 3 2 1 2 1 0 4 3 5 2 0 1 3 4 14 5 2 2 2 4 3 5 5 5 6 6 6 7 7 6 6 10 11 11 11 11 13 14 14 14 15 15 16 16 16 16 16 16 17 16 14
2 2 3 3 3 3 3 2 2 1 1 1 1 1 1 2 1 1 0 1 1 1 3 1 4 1 4 2 3 1 5 1 1 0 0 3 2 2 3 1 2 2 5 5 1 0 2 2 3 8 8 3 4 4 5 4 5 6 8 9 8 9 9 9 10 10 8 9 9 11 13 14 15 14 13 13 14 15 16 17 19 18 17 17 16 15 14
7 4 2 1 2 2 1 0 1 1 0 2 2 1 1 2 1 1 1 1 1 1 3 0 1 2 3 2 4 3 4 1 1 2 0 3 2 1 1 2 1 2 6 2 0 1 2 5 5 14 1 2 4 3 4 3 4 6 7 8 7 9 8 9 11 13 12 11 11 12 14 16 16 15 15 15 17 19 19 19 20 17 15 16 17 17 16
2 2 2 3 1 2 1 1 0 1 1 1 1 0 1 1 1 2 1 1 2 1 1 3 5 5 5 2 0 4 4 2 3 1 2 1 1 1 1 3 5 5 1 1 0 5 9 4 11 9 5 5 5 5 7 9 9 8 11 12 10 8 9 9 11 13 16 14 14 15 15 16 17 17 16 17 18 20 21 23 21 19 18 17 16 17 17
1 3 3 2 1 2 1 2 2 2 0 1 1 1 2 1 2 2 1 2 1 3 3 1 0 1 4 5 1 2 2 3 2 2 3 0 2 1 2 6 3 2 1 6 3 5 2 9 3 3 4 6 8 8 9 9 8 9 10 10 12 12 13 15 18 18 20 19 19 19 19 19 19 19 20 22 22 23 25 24 18 17 17 17 17 17 17
5 2 2 3 3 2 2 0 1 1 1 2 1 3 2 3 3 3 4 1 1 4 6 5 3 1 3 3 1 5 1 0 2 3 1 0 1 4 5 1 0 1 3 1 6 11 14 11 6 5 3 6 7 9 9 10 10 9 9 16 17 17 18 20 20 20 20 20 20 20 22 21 21 22 21 20 20 20 19 19 17 17 16 17 18 19 19
3 2 2 1 1 2 1 0 1 0 0 1 3 4 2 2 5 5 2 1 1 3 2 2 2 3 2 5 3 4 1 1 1 3 2 1 4 4 1 1 4 4 4 4 6 9 8 4 4 5 6 8 10 11 12 13 13 16 17 18 20 22 23 24 25 25 25 25 25 24 22 21 21 20 19 20 19 19 20 19 19 17 16 16 18 18 18
1 1 2 1 2 0 1 1 1 3 1 4 4 4 3 2 3 6 2 2 3 0 1 2 4 5 3 3 2 6 3 1 1 6 3 3 2 2 1 2 6 3 3 4 10 6 6 6 5 6 10 9 9 11 13 15 17 20 22 23 24 24 24 24 23 23 22 22 22 20 20 21 21 20 20 21 21 20 19 19 19 18 18 18 18 18 19
3 2 1 2 2 2 3 2 2 4 5 4 3 3 2 2 5 8 4 1 1 2 1 1 3 1 6 1 1 1 2 1 1 6 2 1 2 5 2 5 2 8 5 5 9 7 7 6 8 10 11 13 13 15 18 19 20 20 21 21 20 21 21 21 22 22 22 20 19 20 20 20 20 19 20 20 20 20 19 19 21 20 20 23 23 22 20
2 1 1 2 2 3 2 2 1 4 3 5 2 2 0 1 4 7 2 0 0 0 2 2 0 1 4 1 2 1 2 2 3 2 1 5 3 2 2 10 8 10 8 3 7 8 9 9 11 14 15 16 18 19 19 19 18 19 18 19 20 20 20 22 22 22 21 20 21 22 22 21 19 18 19 21 20 19 19 20 20 21 23 24 23 21 22
1 1 2 3 5 5 2 3 3 5 6 5 5 6 2 4 4 6 1 1 1 4 4 1 2 1 3 3 1 1 4 1 2 4 4 5 1 1 5 12 12 8 13 10 10 10 12 13 14 16 18 18 16 17 16 17 19 20 20 20 21 20 20 20 22 22 21 21 21 23 23 22 20 20 20 18 19 19 19 19 19 20 22 19 18 20 20
1 1 3 3 1 2 4 5 2 7 10 9 6 6 3 4 3 6 1 1 3 3 5 1 1 0 2 5 4 3 1 1 3 2 6 6 4 4 7 11 14 13 13 14 14 14 15 15 16 18 17 17 17 17 18 22 24 25 27 24 22 21 21 21 21 21 20 20 21 22 23 23 23 21 19 19 19 18 18 17 17 18 19 16 16 19 20
Wind_Direction
7 6 6 2 1 11 13 15 14 12 66 342 235 77 38 46 130 247 23 352 88 65 64 311 43 60 245 290 18 21 36 108 326 70 353 357 68 25 39 195 98 247 298 245 133 191 273 167 239 198 246 262 230 306 318 331 327 92 349 12 280 94 78 359 268 294 307 323 331 1 86 114 337 342 86 111 175 179 179 178 173 156 215 259 339 239 259
11 11 6 2 0 10 14 11 13 20 5 157 113 68 121 135 86 342 317 73 110 77 104 88 27 23 342 70 75 245 138 94 13 350 323 105 345 67 308 333 115 41 69 115 321 188 333 236 130 315 122 279 91 2 8 346 170 36 184 130 292 24 291 120 311 345 328 342 351 1 349 79 214 216 223 158 85 72 140 108 127 284 212 174 133 248 272
14 11 8 359 358 11 12 12 11 18 37 81 118 116 168 111 299 354 312 7 56 94 176 126 139 171 117 70 30 354 29 77 96 157 348 32 103 43 7 2 303 31 355 55 31 354 98 296 14 66 221 247 40 15 14 321 117 41 311 257 306 148 231 108 322 317 324 320 323 293 290 235 240 213 192 268 148 133 123 243 115 194 277 150 185 249 258
17 14 11 0 355 1 3 7 11 11 26 88 70 125 55 31 110 321 350 14 44 73 54 101 127 111 139 47 314 109 33 25 12 112 97 161 114 128 236 352 81 72 30 11 9 321 358 116 282 16 288 290 352 284 317 55 141 285 216 9 48 179 321 197 173 169 213 228 241 262 91 27 238 255 162 225 176 201 106 101 122 215 203 190 234 226 281
20 17 14 8 356 0 358 355 6 13 23 89 108 47 96 123 65 1 339 338 49 64 27 20 35 97 165 95 299 1 351 257 4 103 72 351 122 299 105 204 36 293 55 295 300 216 288 22 291 237 218 256 249 155 244 154 196 304 294 218 85 67 297 238 208 230 233 243 262 254 67 276 276 276 266 194 180 173 163 174 222 155 96 277 248 233 250
22 21 18 14 7 2 352 357 4 4 16 73 66 54 6 68 232 113 202 109 324 14 356 41 57 13 60 120 57 61 356 12 10 337 42 131 317 75 332 65 212 182 169 144 302 315 289 11 244 329 220 340 323 9 195 243 349 338 348 355 134 152 212 284 138 258 251 273 278 292 289 249 267 266 265 246 189 159 194 225 216 137 212 243 267 127 226
25 24 22 19 11 7 2 356 360 7 359 36 95 91 337 112 150 145 309 88 236 136 258 78 98 59 75 130 65 17 52 5 265 196 326 29 352 32 354 337 352 264 281 119 285 270 12 316 267 186 307 227 338 328 344 115 30 40 17 3 171 82 254 271 90 284 290 283 280 287 237 279 283 260 257 240 174 211 210 235 219 201 235 250 269 284 283
24 24 23 19 13 9 358 1 357 0 0 354 68 48 112 20 92 44 15 85 126 262 35 95 52 55 347 78 329 119 139 348 327 10 123 348 340 348 286 299 322 341 256 329 252 243 199 289 300 291 91 317 144 243 214 98 354 68 133 62 296 124 281 63 332 328 295 286 329 37 208 203 276 279 258 203 220 224 229 247 258 229 273 264 268 279 278
17 23 26 24 20 15 10 4 359 357 354 46 70 30 47 154 150 151 105 42 331 4 20 45 82 60 347 63 306 81 178 216 187 261 230 164 237 176 249 161 283 115 78 271 265 240 222 246 243 224 168 247 222 150 303 123 129 46 72 48 328 74 267 59 53 352 298 319 12 318 276 234 244 273 288 260 181 237 216 200 217 166 225 256 350 270 262
15 16 24 25 25 20 18 11 7 359 14 106 84 62 306 83 201 77 107 86 324 46 330 6 63 21 247 139 262 158 256 222 198 338 137 95 133 182 178 225 106 299 7 278 240 232 199 231 239 223 233 280 187 207 218 131 149 180 165 245 158 161 116 10 11 346 264 263 318 316 321 328 326 285 235 202 201 198 259 264 214 217 167 191 231 246 251
17 15 19 24 24 24 24 22 17 10 25 62 88 45 12 61 353 8 48 93 344 39 24 1 90 228 126 297 244 4 288 298 268 72 305 84 280 221 167 144 174 270 233 259 354 170 229 281 284 290 153 230 143 53 99 63 72 149 158 117 299 97 109 329 170 215 267 304 328 320 3 340 264 238 179 139 284 224 221 245 219 224 174 219 212 255 295
19 17 17 14 22 25 27 30 28 26 37 112 124 110 211 156 94 96 85 84 5 342 83 75 87 277 103 258 144 211 240 243 237 4 248 277 324 38 88 27 74 300 267 357 321 314 273 245 275 240 95 51 77 72 89 154 49 23 166 153 145 126 105 186 119 158 279 321 346 8 330 252 234 271 252 237 239 224 214 250 266 256 208 254 281 278 275
19 18 18 18 22 23 25 32 34 34 33 30 66 73 274 195 116 111 121 108 87 342 32 354 18 350 325 1 309 249 239 290 319 230 265 264 314 17 260 167 194 230 22 334 333 331 342 304 285 218 241 4 64 76 48 39 10 27 61 99 121 156 142 172 304 167 325 359 30 3 260 275 294 295 57 177 104 128 167 292 267 255 230 212 243 257 262
22 20 18 18 19 22 23 26 32 39 35 39 70 79 53 204 64 49 66 90 338 241 208 349 21 356 149 252 198 290 332 294 311 164 286 207 216 265 300 335 221 328 321 297 13 39 331 38 354 6 317 10 22 10 197 73 26 40 360 338 123 142 106 133 275 182 207 203 184 246 306 314 305 31 50 191 357 241 69 325 296 293 228 176 226 256 271
24 21 19 18 18 19 20 22 25 32 50 49 94 80 52 21 63 124 190 90 126 115 133 61 302 327 139 41 220 354 18 300 14 308 176 82 344 227 223 287 331 310 311 330 357 40 106 58 360 10 318 28 343 288 133 295 320 13 333 306 101 159 157 233 122 284 123 224 329 330 350 313 283 236 312 210 154 147 175 118 286 292 284 218 224 264 284
26 24 21 18 16 16 18 18 20 22 27 71 64 84 58 48 125 83 112 129 126 44 334 212 155 144 88 174 192 60 309 349 321 312 344 335 255 326 247 252 253 240 315 64 81 85 35 341 251 86 294 273 243 21 293 321 333 5 35 41 73 20 68 130 150 249 29 357 180 240 201 256 274 288 263 251 242 156 168 44 285 277 275 325 197 276 291
25 23 21 19 16 14 14 16 18 20 18 33 75 44 42 5 18 16 49 27 72 138 269 161 140 110 94 10 7 17 113 18 312 24 336 335 315 278 298 238 266 148 311 54 2 49 357 43 121 188 282 207 7 256 298 36 323 317 10 27 49 37 348 27 312 252 209 129 222 263 214 250 275 258 227 229 163 127 50 323 288 270 312 295 279 299 303
23 21 19 18 16 14 11 11 15 15 23 27 72 75 16 350 58 111 57 93 93 20 320 221 29 37 50 183 300 256 172 8 15 103 198 267 342 354 308 348 334 236 193 43 1 57 48 149 283 281 271 252 220 17 279 217 263 246 245 144 199 141 267 126 219 192 216 181 269 322 285 268 252 278 314 35 191 132 6 300 298 327 328 319 310 306 307
23 20 19 19 18 15 12 10 10 11 11 39 120 52 46 14 356 52 121 62 75 54 310 297 257 100 195 51 108 167 179 142 158 73 315 1 20 239 177 253 145 349 1 136 58 79 264 272 80 137 239 304 19 232 281 337 258 24 106 321 317 280 122 320 75 218 206 192 185 235 261 257 246 250 140 230 349 328 310 266 282 317 317 315 314 307 309
24 22 22 22 21 18 15 11 10 7 11 12 60 97 228 333 18 36 37 111 84 90 321 306 335 71 247 78 33 21 341 19 41 100 120 273 258 2 17 18 312 89 344 63 348 204 109 261 218 51 272 249 276 169 3 261 193 197 201 199 233 212 134 222 186 188 58 47 18 325 312 284 112 165 70 167 11 287 281 319 314 312 307 312 313 314 316
23 22 22 22 22 21 16 13 9 10 8 10 63 94 19 326 30 27 58 125 119 87 353 256 95 130 115 132 168 167 145 232 192 106 235 207 239 63 37 234 242 77 249 138 265 278 161 292 279 221 218 158 279 23 241 293 308 270 201 227 223 199 141 274 259 178 159 172 206 231 226 219 224 54 320 235 231 294 326 330 302 310 317 323 318 313 315
23 21 21 21 22 22 19 14 7 9 8 4 28 71 52 328 19 27 347 63 89 101 162 96 26 130 321 5 220 224 293 218 204 171 142 302 272 186 201 151 201 170 230 116 31 346 353 224 62 4 309 305 36 225 200 337 286 278 330 65 318 186 190 191 269 213 154 231 233 264 270 240 212 179 231 276 281 287 282 292 282 303 316 321 321 313 316
22 21 21 22 23 24 23 17 10 11 15 9 38 68 71 327 346 359 54 61 36 73 19 39 32 48 273 226 257 293 307 327 11 20 218 127 312 284 177 156 285 227 352 49 228 197 235 133 278 185 332 181 213 287 319 186 262 318 296 214 221 306 213 236 296 258 265 264 256 277 304 306 305 173 231 265 290 299 319 309 312 304 306 315 309 311 311
21 20 20 21 23 24 25 23 15 16 24 22 39 80 43 356 332 353 18 74 104 95 10 17 71 352 341 360 287 346 54 19 66 247 299 196 177 307 338 254 262 59 30 260 179 278 217 147 233 124 261 248 96 285 279 300 249 203 312 310 338 272 305 297 255 285 345 286 303 295 297 298 302 307 280 253 250 269 310 311 291 293 302 308 303 295 301
20 19 17 18 22 25 29 28 18 22 24 24 36 55 136 36 7 358 45 45 354 81 141 314 267 128 40 75 50 24 290 20 359 320 354 5 180 185 198 163 190 235 266 283 86 54 58 282 297 164 259 258 132 274 175 185 291 122 273 278 30 320 181 328 235 261 252 270 289 304 304 295 292 284 282 324 325 333 304 287 293 295 293 280 289 309 307
19 18 17 17 21 26 30 35 31 30 39 39 46 60 59 44 324 15 87 80 109 112 91 331 287 348 326 344 330 222 155 140 19 305 94 353 247 11 241 347 328 42 96 96 116 173 181 203 185 182 190 287 146 220 243 198 252 203 228 267 187 240 7 278 199 295 264 272 278 283 301 298 302 49 355 347 337 325 334 336 319 310 314 318 317 309 278
18 18 16 16 19 25 29 35 36 35 49 54 62 62 70 65 28 37 53 311 84 342 36 29 285 296 255 260 102 40 100 21 38 23 13 85 108 169 143 128 277 356 90 245 40 137 84 136 125 244 174 240 168 221 210 296 260 275 268 256 267 358 276 226 66 283 272 277 304 321 318 312 309 313 74 325 318 342 332 329 331 329 326 324 323 316 314
15 17 16 16 17 19 23 26 31 34 46 69 77 77 63 63 30 36 57 29 55 131 201 241 303 285 278 274 90 76 354 8 7 284 98 311 226 183 170 179 142 161 166 135 294 181 174 173 251 218 270 310 5 281 155 270 17 293 221 253 203 204 231 145 195 198 281 297 297 301 286 283 283 321 333 330 346 3 332 319 311 308 308 308 316 315 320
12 16 17 18 16 15 13 14 17 21 35 120 96 79 60 62 56 45 38 18 97 95 101 233 291 355 44 276 75 33 45 39 22 340 274 270 230 168 190 181 172 171 103 97 125 126 179 232 148 151 221 209 137 280 24 300 269 269 264 241 194 234 189 175 206 242 269 276 284 300 314 292 303 312 310 306 311 333 306 296 294 291 295 304 304 295 295
10 14 17 16 14 11 8 4 2 12 132 51 44 49 40 333 38 43 32 34 58 123 75 46 53 248 313 353 322 338 336 38 17 30 57 6 197 227 208 154 216 179 154 201 168 233 228 179 272 275 278 342 206 248 31 236 281 260 259 251 226 276 258 243 231 240 277 292 299 321 285 284 282 282 282 281 278 281 290 290 289 294 294 297 301 303 303
10 14 16 14 12 9 7 4 0 6 81 75 81 41 34 0 287 59 17 6 10 109 137 100 230 286 4 233 149 322 326 335 11 358 351 173 241 237 269 50 262 156 239 297 50 231 115 264 156 278 300 224 180 221 212 214 277 292 261 215 237 233 260 272 252 236 256 279 296 278 266 259 263 302 301 306 307 310 301 289 289 283 286 297 289 284 285
5 7 6 7 4 4 9 12 12 8 40 53 76 151 185 207 284 341 346 340 0 60 61 52 347 5 292 313 302 281 306 306 324 318 308 158 354 193 302 186 245 212 178 179 204 15 244 230 151 243 226 206 146 245 132 192 256 255 269 246 235 264 283 291 291 285 282 257 263 331 336 313 308 301 268 280 292 295 292 288 290 295 291 281 279 276 270
352 352 352 352 353 358 15 38 49 54 71 97 95 88 71 10 325 328 334 320 57 41 129 84 129 221 353 264 319 331 327 358 356 14 330 186 251 32 331 2 315 331 245 154 286 210 210 137 140 298 249 251 185 228 177 226 231 249 258 274 274 274 276 272 272 273 264 263 198 213 253 270 278 286 291 298 292 288 293 297 297 304 303 298 298 295 296
344 351 349 346 346 3 40 80 74 84 75 60 356 343 346 326 326 333 332 80 99 90 71 106 59 15 270 314 45 283 43 26 285 28 329 296 197 72 241 5 324 343 250 164 258 22 318 75 211 232 350 253 311 60 270 250 241 250 269 270 269 284 268 278 275 275 273 266 232 228 242 257 286 305 305 291 288 289 290 288 300 309 307 304 295 293 292
344 351 354 351 13 57 71 64 39 46 97 167 226 269 301 316 323 318 320 102 58 348 28 358 107 55 349 347 26 275 343 50 320 302 204 269 49 9 323 34 326 29 287 74 16 188 282 254 160 63 247 302 104 232 246 258 269 264 267 276 274 268 307 308 289 240 250 268 271 257 249 249 279 292 288 289 293 298 305 302 299 298 302 305 304 302 302
344 353 358 42 71 76 87 31 40 11 29 12 297 314 315 314 323 315 333 56 132 146 85 262 77 128 151 342 310 276 195 339 248 326 228 283 341 38 96 95 339 253 155 52 223 354 234 252 93 258 356 124 232 210 232 227 257 275 271 271 275 251 244 234 256 283 292 296 288 284 307 312 298 292 296 296 296 299 300 301 302 300 293 293 299 304 307
352 355 64 53 24 40 26 228 304 69 213 272 306 320 317 340 321 21 358 23 343 80 130 150 65 246 170 247 267 277 31 332 349 358 330 2 269 283 40 36 244 271 22 331 316 258 257 68 172 260 215 203 251 208 228 241 245 259 269 279 282 265 263 265 246 250 292 301 311 314 308 301 302 305 308 310 310 310 312 308 308 310 307 305 305 307 303
7 34 50 20 40 34 356 329 330 290 296 308 325 354 5 48 15 336 2 30 311 41 6 61 120 259 324 76 281 261 35 270 63 8 310 227 0 298 114 196 242 35 292 261 251 185 128 170 220 210 261 250 272 275 241 243 246 257 268 268 267 265 253 269 265 251 307 330 327 320 319 316 314 314 314 310 311 310 307 304 300 296 291 290 291 294 300
45 30 50 30 85 183 194 252 286 316 346 98 30 72 305 29 53 16 327 305 355 34 326 94 249 216 88 350 279 296 170 304 324 27 312 278 56 305 13 7 293 63 287 10 293 115 279 291 304 11 274 270 306 255 238 246 277 263 251 252 244 263 248 275 236 263 302 294 290 293 296 302 305 303 305 302 299 296 295 296 295 295 295 292 292 293 295
24 35 22 6 78 247 256 272 343 1 68 32 340 90 278 335 86 298 333 40 349 289 17 360 200 201 208 233 246 308 319 18 323 308 222 302 212 195 266 19 261 88 261 229 256 43 156 264 270 30 279 270 253 246 263 279 279 286 275 273 275 274 271 273 303 285 272 279 281 283 285 282 280 284 291 296 298 302 304 303 299 295 292 290 291 291 290
32 63 23 348 259 284 291 331 355 51 58 33 351 9 57 11 43 191 48 55 130 247 199 175 7 3 324 35 94 247 295 82 189 120 131 241 251 76 28 231 232 49 266 255 281 71 37 338 267 195 255 243 204 271 295 310 301 303 318 332 327 325 315 305 292 288 295 295 294 291 287 282 284 286 285 284 287 289 291 294 297 297 297 295 295 294 295
209 191 218 230 268 301 339 6 65 38 16 115 120 301 319 250 297 13 127 72 298 304 324 67 339 344 289 183 229 176 292 176 145 116 72 305 291 143 240 301 356 174 254 235 121 46 91 241 256 265 260 276 273 322 346 343 336 353 327 329 324 312 310 303 301 297 288 277 277 284 290 293 291 290 288 289 289 289 291 292 293 296 297 297 297 298 299
300 278 89 346 14 339 75 356 306 96 94 350 33 15 27 46 9 111 281 291 288 88 276 126 233 255 285 57 325 197 214 224 301 297 97 249 305 58 126 314 47 274 241 345 64 321 226 239 246 257 350 328 318 340 12 312 286 303 301 299 295 296 298 298 297 300 300 297 290 288 293 298 298 296 293 288 285 286 286 286 288 293 297 302 305 303 302
61 36 24 348 40 290 49 328 319 34 345 85 82 351 345 16 316 18 22 300 324 341 25 30 315 52 308 316 159 304 350 336 103 48 276 278 88 280 11 249 231 250 43 1 227 224 246 225 242 281 326 315 349 350 351 343 336 325 322 320 316 311 305 300 304 307 311 309 307 308 305 303 302 301 298 293 290 292 298 304 309 310 308 304 301 300 299
66 7 26 11 25 282 50 277 18 104 24 317 104 157 153 109 270 189 211 248 115 265 325 35 353 26 294 283 354 253 153 246 315 102 258 131 298 232 137 257 272 3 230 252 276 289 344 258 301 357 346 5 342 339 333 329 326 318 307 307 309 313 316 318 317 320 318 321 320 320 317 315 314 314 316 317 318 318 316 312 309 306 305 303 300 297 296
56 84 38 45 334 343 79 218 8 30 352 143 168 195 163 231 179 231 251 126 285 317 353 317 335 273 287 253 170 246 279 324 357 241 193 26 229 263 245 312 109 267 302 256 244 252 246 269 337 305 351 344 336 326 329 321 321 315 324 321 321 320 320 320 319 317 315 315 317 318 318 321 320 318 314 311 308 306 304 303 303 301 300 300 299 300 300
52 17 83 119 103 283 80 108 267 197 167 229 225 200 192 212 213 233 251 145 238 246 254 238 199 206 275 294 321 324 58 73 235 268 69 277 230 275 342 73 260 229 244 253 246 259 273 278 286 302 322 335 335 330 326 324 325 324 323 320 322 324 325 325 325 324 323 323 320 318 314 311 309 306 305 305 303 302 300 299 298 297 295 292 293 294 296
88 239 94 73 258 242 351 281 296 300 212 206 238 217 256 305 333 307 278 198 213 282 20 22 343 353 323 289 141 229 254 202 287 267 178 223 352 298 276 242 242 237 208 219 247 264 285 282 289 314 324 323 318 319 323 324 324 324 324 324 324 323 321 318 313 311 310 308 308 306 304 304 303 304 304 302 300 299 299 298 298 299 297 295 294 294 294
134 119 133 192 196 182 235 256 23 319 283 294 286 286 281 276 264 270 270 176 216 248 215 84 274 353 278 190 179 17 310 240 157 258 9 347 191 212 199 254 273 280 244 236 265 268 265 290 308 313 316 322 327 325 322 321 321 319 318 314 311 309 308 307 305 304 304 302 301 301 300 299 300 299 299 299 299 299 300 300 300 298 296 295 294 294 294
65 3 58 84 353 296 205 153 102 267 309 329 360 308 292 260 271 272 205 279 277 13 344 348 134 152 253 71 307 314 252 253 221 316 32 248 219 250 283 266 248 268 279 278 293 296 306 310 314 314 318 318 318 319 316 313 310 308 307 306 305 305 304 303 303 303 302 301 301 300 300 300 300 299 299 299 298 298 299 298 296 296 294 293 293 294 293
343 131 234 179 171 219 97 298 256 277 297 265 252 254 193 261 255 278 247 123 45 27 35 243 259 353 344 351 349 344 254 116 27 261 202 224 227 197 211 256 266 270 281 289 294 306 308 308 311 310 311 310 308 306 305 304 303 301 301 300 301 300 300 300 299 299 300 300 300 300 300 300 298 297 296 296 297 298 297 295 293 292 292 294 294 294 294
30 338 264 287 270 237 214 256 233 231 245 254 247 240 162 257 246 256 249 84 13 346 272 229 81 335 289 253 234 224 321 1 240 276 286 256 147 198 240 252 277 284 290 296 299 301 301 302 303 303 303 304 304 302 300 300 299 300 299 299 299 300 299 299 299 298 298 298 297 297 296 297 298 297 297 297 297 297 297 297 297 297 296 296 295 294 293